Year,Month,Day,Hour,Minute,Value (Times are PST for windgust in km/hr)
2012,03,13,00,01,1.60
2012,03,13,00,02,4.80
2012,03,13,00,04,4.80
2012,03,13,00,05,6.40
2012,03,13,00,06,3.20
2012,03,13,00,07,6.40
2012,03,13,00,08,8.10
2012,03,13,00,09,11.30
2012,03,13,00,10,8.10
2012,03,13,00,11,4.80
2012,03,13,00,12,3.20
2012,03,13,00,13,16.10
2012,03,13,00,14,19.30
2012,03,13,00,15,16.10
2012,03,13,00,16,19.30
2012,03,13,00,17,9.60
2012,03,13,00,18,6.40
2012,03,13,00,19,4.80
2012,03,13,00,20,4.80
2012,03,13,00,21,4.80
2012,03,13,00,22,12.90
2012,03,13,00,23,17.70
2012,03,13,00,24,9.60
2012,03,13,00,25,6.40
2012,03,13,00,26,6.40
2012,03,13,00,27,25.70
2012,03,13,00,28,19.30
2012,03,13,00,29,9.60
2012,03,13,00,30,9.60
2012,03,13,00,31,11.30
2012,03,13,00,32,16.10
2012,03,13,00,33,9.60
2012,03,13,00,34,6.40
2012,03,13,00,35,3.20
2012,03,13,00,36,3.20
2012,03,13,00,37,4.80
2012,03,13,00,38,6.40
2012,03,13,00,39,16.10
2012,03,13,00,40,16.10
2012,03,13,00,41,11.30
2012,03,13,00,42,19.30
2012,03,13,00,43,20.90
2012,03,13,00,44,14.50
2012,03,13,00,45,11.30
2012,03,13,00,46,16.10
2012,03,13,00,47,20.90
2012,03,13,00,48,8.10
2012,03,13,00,49,6.40
2012,03,13,00,50,11.30
2012,03,13,00,51,4.80
2012,03,13,00,52,3.20
2012,03,13,00,53,4.80
2012,03,13,00,54,6.40
2012,03,13,00,55,3.20
2012,03,13,00,56,3.20
2012,03,13,00,57,3.20
2012,03,13,00,58,3.20
2012,03,13,00,59,3.20
2012,03,13,01,00,3.20
2012,03,13,01,02,1.60
2012,03,13,01,03,8.10
2012,03,13,01,04,6.40
2012,03,13,01,05,3.20
2012,03,13,01,06,1.60
2012,03,13,01,07,4.80
2012,03,13,01,08,6.40
2012,03,13,01,09,6.40
2012,03,13,01,10,8.10
2012,03,13,01,11,17.70
2012,03,13,01,12,14.50
2012,03,13,01,13,9.60
2012,03,13,01,14,12.90
2012,03,13,01,15,19.30
2012,03,13,01,16,16.10
2012,03,13,01,17,4.80
2012,03,13,01,18,9.60
2012,03,13,01,19,6.40
2012,03,13,01,20,1.60
2012,03,13,01,21,4.80
2012,03,13,01,22,11.30
2012,03,13,01,23,11.30
2012,03,13,01,24,11.30
2012,03,13,01,25,9.60
2012,03,13,01,26,4.80
2012,03,13,01,27,4.80
2012,03,13,01,28,6.40
2012,03,13,01,29,11.30
2012,03,13,01,30,12.90
2012,03,13,01,31,9.60
2012,03,13,01,32,12.90
2012,03,13,01,33,9.60
2012,03,13,01,34,11.30
2012,03,13,01,35,6.40
2012,03,13,01,36,8.10
2012,03,13,01,37,6.40
2012,03,13,01,38,8.10
2012,03,13,01,39,16.10
2012,03,13,01,40,16.10
2012,03,13,01,41,11.30
2012,03,13,01,42,12.90
2012,03,13,01,43,16.10
2012,03,13,01,44,12.90
2012,03,13,01,45,8.10
2012,03,13,01,46,9.60
2012,03,13,01,47,8.10
2012,03,13,01,48,9.60
2012,03,13,01,49,16.10
2012,03,13,01,50,12.90
2012,03,13,01,51,9.60
2012,03,13,01,52,9.60
2012,03,13,01,53,11.30
2012,03,13,01,54,9.60
2012,03,13,01,55,9.60
2012,03,13,01,56,8.10
2012,03,13,01,57,9.60
2012,03,13,01,58,6.40
2012,03,13,01,59,3.20
2012,03,13,02,00,4.80
2012,03,13,02,01,4.80
2012,03,13,02,02,4.80
2012,03,13,02,03,6.40
2012,03,13,02,04,3.20
2012,03,13,02,05,3.20
2012,03,13,02,06,4.80
2012,03,13,02,07,3.20
2012,03,13,02,09,1.60
2012,03,13,02,10,3.20
2012,03,13,02,12,1.60
2012,03,13,02,16,3.20
2012,03,13,02,17,3.20
2012,03,13,02,20,1.60
2012,03,13,02,22,3.20
2012,03,13,02,23,3.20
2012,03,13,02,24,6.40
2012,03,13,02,25,8.10
2012,03,13,02,26,8.10
2012,03,13,02,27,8.10
2012,03,13,02,28,8.10
2012,03,13,02,29,6.40
2012,03,13,02,30,4.80
2012,03,13,02,31,6.40
2012,03,13,02,32,4.80
2012,03,13,02,33,3.20
2012,03,13,02,34,3.20
2012,03,13,02,35,3.20
2012,03,13,02,36,4.80
2012,03,13,02,37,4.80
2012,03,13,02,38,4.80
2012,03,13,02,39,4.80
2012,03,13,02,40,6.40
2012,03,13,02,41,4.80
2012,03,13,02,42,3.20
2012,03,13,02,43,4.80
2012,03,13,02,44,6.40
2012,03,13,02,45,6.40
2012,03,13,02,46,3.20
2012,03,13,02,49,3.20
2012,03,13,02,50,3.20
2012,03,13,02,51,3.20
2012,03,13,02,52,4.80
2012,03,13,02,53,6.40
2012,03,13,02,54,3.20
2012,03,13,02,55,6.40
2012,03,13,02,56,8.10
2012,03,13,02,57,6.40
2012,03,13,02,58,6.40
2012,03,13,02,59,6.40
2012,03,13,03,00,6.40
2012,03,13,03,01,8.10
2012,03,13,03,02,6.40
2012,03,13,03,03,6.40
2012,03,13,03,04,4.80
2012,03,13,03,05,4.80
2012,03,13,03,06,4.80
2012,03,13,03,07,3.20
2012,03,13,03,08,3.20
2012,03,13,03,13,3.20
2012,03,13,03,14,3.20
2012,03,13,03,15,4.80
2012,03,13,03,16,3.20
2012,03,13,03,17,1.60
2012,03,13,03,18,3.20
2012,03,13,03,19,4.80
2012,03,13,03,20,1.60
2012,03,13,03,21,3.20
2012,03,13,03,22,4.80
2012,03,13,03,23,4.80
2012,03,13,03,24,4.80
2012,03,13,03,25,4.80
2012,03,13,03,26,1.60
2012,03,13,03,27,3.20
2012,03,13,03,28,1.60
2012,03,13,03,29,1.60
2012,03,13,03,30,3.20
2012,03,13,03,34,4.80
2012,03,13,03,35,4.80
2012,03,13,03,36,8.10
2012,03,13,03,37,9.60
2012,03,13,03,38,6.40
2012,03,13,03,39,8.10
2012,03,13,03,40,6.40
2012,03,13,03,41,8.10
2012,03,13,03,42,4.80
2012,03,13,03,43,6.40
2012,03,13,03,44,3.20
2012,03,13,03,46,6.40
2012,03,13,03,47,6.40
2012,03,13,03,48,3.20
2012,03,13,03,49,1.60
2012,03,13,03,50,1.60
2012,03,13,03,51,3.20
2012,03,13,03,52,3.20
2012,03,13,03,53,4.80
2012,03,13,03,54,1.60
2012,03,13,03,55,6.40
2012,03,13,03,57,3.20
2012,03,13,03,58,1.60
2012,03,13,04,07,3.20
2012,03,13,04,08,4.80
2012,03,13,04,09,3.20
2012,03,13,04,11,3.20
2012,03,13,04,12,3.20
2012,03,13,04,13,1.60
2012,03,13,04,14,1.60
2012,03,13,04,15,3.20
2012,03,13,04,16,1.60
2012,03,13,04,18,3.20
2012,03,13,04,19,3.20
2012,03,13,04,20,1.60
2012,03,13,04,23,1.60
2012,03,13,04,25,3.20
2012,03,13,04,35,1.60
2012,03,13,04,38,3.20
2012,03,13,04,39,1.60
2012,03,13,04,46,3.20
2012,03,13,04,47,3.20
2012,03,13,04,48,3.20
2012,03,13,04,51,1.60
2012,03,13,04,52,3.20
2012,03,13,04,53,6.40
2012,03,13,04,54,4.80
2012,03,13,04,55,11.30
2012,03,13,04,56,6.40
2012,03,13,04,57,9.60
2012,03,13,04,58,9.60
2012,03,13,04,59,11.30
2012,03,13,05,00,12.90
2012,03,13,05,01,11.30
2012,03,13,05,02,14.50
2012,03,13,05,03,14.50
2012,03,13,05,04,9.60
2012,03,13,05,05,11.30
2012,03,13,05,06,11.30
2012,03,13,05,07,11.30
2012,03,13,05,08,12.90
2012,03,13,05,09,11.30
2012,03,13,05,10,11.30
2012,03,13,05,11,16.10
2012,03,13,05,12,17.70
2012,03,13,05,13,17.70
2012,03,13,05,14,14.50
2012,03,13,05,15,14.50
2012,03,13,05,16,8.10
2012,03,13,05,17,9.60
2012,03,13,05,18,6.40
2012,03,13,05,19,6.40
2012,03,13,05,20,8.10
2012,03,13,05,21,8.10
2012,03,13,05,22,6.40
2012,03,13,05,23,4.80
2012,03,13,05,24,4.80
2012,03,13,05,25,8.10
2012,03,13,05,26,6.40
2012,03,13,05,27,8.10
2012,03,13,05,28,6.40
2012,03,13,05,29,6.40
2012,03,13,05,30,3.20
2012,03,13,05,31,3.20
2012,03,13,05,32,3.20
2012,03,13,05,34,6.40
2012,03,13,05,35,6.40
2012,03,13,05,36,9.60
2012,03,13,05,37,6.40
2012,03,13,05,38,6.40
2012,03,13,05,39,9.60
2012,03,13,05,40,1.60
2012,03,13,05,41,4.80
2012,03,13,05,42,6.40
2012,03,13,05,43,8.10
2012,03,13,05,44,4.80
2012,03,13,05,45,8.10
2012,03,13,05,46,9.60
2012,03,13,05,47,6.40
2012,03,13,05,48,6.40
2012,03,13,05,49,6.40
2012,03,13,05,50,6.40
2012,03,13,05,51,3.20
2012,03,13,05,52,4.80
2012,03,13,05,53,8.10
2012,03,13,05,54,6.40
2012,03,13,05,55,4.80
2012,03,13,05,56,4.80
2012,03,13,05,57,3.20
2012,03,13,05,58,4.80
2012,03,13,05,59,8.10
2012,03,13,06,00,16.10
2012,03,13,06,01,14.50
2012,03,13,06,02,8.10
2012,03,13,06,03,17.70
2012,03,13,06,04,14.50
2012,03,13,06,05,14.50
2012,03,13,06,06,14.50
2012,03,13,06,07,9.60
2012,03,13,06,08,8.10
2012,03,13,06,09,9.60
2012,03,13,06,10,11.30
2012,03,13,06,11,11.30
2012,03,13,06,12,9.60
2012,03,13,06,13,11.30
2012,03,13,06,14,14.50
2012,03,13,06,15,11.30
2012,03,13,06,16,9.60
2012,03,13,06,17,16.10
2012,03,13,06,18,9.60
2012,03,13,06,19,9.60
2012,03,13,06,20,8.10
2012,03,13,06,21,8.10
2012,03,13,06,22,11.30
2012,03,13,06,23,14.50
2012,03,13,06,24,9.60
2012,03,13,06,25,11.30
2012,03,13,06,26,14.50
2012,03,13,06,27,14.50
2012,03,13,06,28,8.10
2012,03,13,06,29,6.40
2012,03,13,06,30,3.20
2012,03,13,06,31,4.80
2012,03,13,06,32,4.80
2012,03,13,06,33,8.10
2012,03,13,06,34,8.10
2012,03,13,06,35,1.60
2012,03,13,06,36,3.20
2012,03,13,06,37,6.40
2012,03,13,06,38,4.80
2012,03,13,06,40,8.10
2012,03,13,06,41,6.40
2012,03,13,06,42,4.80
2012,03,13,06,43,1.60
2012,03,13,06,48,3.20
2012,03,13,06,49,8.10
2012,03,13,06,50,6.40
2012,03,13,06,51,1.60
2012,03,13,06,52,4.80
2012,03,13,06,53,4.80
2012,03,13,06,59,1.60
2012,03,13,07,00,1.60
2012,03,13,07,05,1.60
2012,03,13,07,06,1.60
2012,03,13,07,07,4.80
2012,03,13,07,08,8.10
2012,03,13,07,09,8.10
2012,03,13,07,10,8.10
2012,03,13,07,11,9.60
2012,03,13,07,12,9.60
2012,03,13,07,13,8.10
2012,03,13,07,14,8.10
2012,03,13,07,15,11.30
2012,03,13,07,16,11.30
2012,03,13,07,17,17.70
2012,03,13,07,18,14.50
2012,03,13,07,19,9.60
2012,03,13,07,20,17.70
2012,03,13,07,21,14.50
2012,03,13,07,22,16.10
2012,03,13,07,23,19.30
2012,03,13,07,24,12.90
2012,03,13,07,25,19.30
2012,03,13,07,26,9.60
2012,03,13,07,27,8.10
2012,03,13,07,28,8.10
2012,03,13,07,29,16.10
2012,03,13,07,30,9.60
2012,03,13,07,31,8.10
2012,03,13,07,32,14.50
2012,03,13,07,33,14.50
2012,03,13,07,34,9.60
2012,03,13,07,35,6.40
2012,03,13,07,36,11.30
2012,03,13,07,37,11.30
2012,03,13,07,38,9.60
2012,03,13,07,39,9.60
2012,03,13,07,40,9.60
2012,03,13,07,41,6.40
2012,03,13,07,42,6.40
2012,03,13,07,43,4.80
2012,03,13,07,44,6.40
2012,03,13,07,45,4.80
2012,03,13,07,46,4.80
2012,03,13,07,47,4.80
2012,03,13,07,48,6.40
2012,03,13,07,49,11.30
2012,03,13,07,50,6.40
2012,03,13,07,51,1.60
2012,03,13,07,52,9.60
2012,03,13,07,53,6.40
2012,03,13,07,54,8.10
2012,03,13,07,55,9.60
2012,03,13,07,56,14.50
2012,03,13,07,57,16.10
2012,03,13,07,58,11.30
2012,03,13,07,59,12.90
2012,03,13,08,00,11.30
2012,03,13,08,01,11.30
2012,03,13,08,02,8.10
2012,03,13,08,03,11.30
2012,03,13,08,04,9.60
2012,03,13,08,05,8.10
2012,03,13,08,06,8.10
2012,03,13,08,07,11.30
2012,03,13,08,08,11.30
2012,03,13,08,09,9.60
2012,03,13,08,10,8.10
2012,03,13,08,11,11.30
2012,03,13,08,12,9.60
2012,03,13,08,13,14.50
2012,03,13,08,14,11.30
2012,03,13,08,15,11.30
2012,03,13,08,16,11.30
2012,03,13,08,17,11.30
2012,03,13,08,18,8.10
2012,03,13,08,19,8.10
2012,03,13,08,20,9.60
2012,03,13,08,21,11.30
2012,03,13,08,22,9.60
2012,03,13,08,23,11.30
2012,03,13,08,24,11.30
2012,03,13,08,25,11.30
2012,03,13,08,26,16.10
2012,03,13,08,27,16.10
2012,03,13,08,28,14.50
2012,03,13,08,29,17.70
2012,03,13,08,30,19.30
2012,03,13,08,31,19.30
2012,03,13,08,32,19.30
2012,03,13,08,33,16.10
2012,03,13,08,34,17.70
2012,03,13,08,35,22.50
2012,03,13,08,36,16.10
2012,03,13,08,37,22.50
2012,03,13,08,38,17.70
2012,03,13,08,39,19.30
2012,03,13,08,40,22.50
2012,03,13,08,41,24.20
2012,03,13,08,42,16.10
2012,03,13,08,43,17.70
2012,03,13,08,44,19.30
2012,03,13,08,45,22.50
2012,03,13,08,46,14.50
2012,03,13,08,47,14.50
2012,03,13,08,48,17.70
2012,03,13,08,49,9.60
2012,03,13,08,50,14.50
2012,03,13,08,51,19.30
2012,03,13,08,52,17.70
2012,03,13,08,53,14.50
2012,03,13,08,54,16.10
2012,03,13,08,55,19.30
2012,03,13,08,56,11.30
2012,03,13,08,57,12.90
2012,03,13,08,58,17.70
2012,03,13,08,59,11.30
2012,03,13,09,00,9.60
2012,03,13,09,01,14.50
2012,03,13,09,02,12.90
2012,03,13,09,03,11.30
2012,03,13,09,04,11.30
2012,03,13,09,05,17.70
2012,03,13,09,06,8.10
2012,03,13,09,07,11.30
2012,03,13,09,08,9.60
2012,03,13,09,09,9.60
2012,03,13,09,10,11.30
2012,03,13,09,11,11.30
2012,03,13,09,12,14.50
2012,03,13,09,13,4.80
2012,03,13,09,14,6.40
2012,03,13,09,15,8.10
2012,03,13,09,16,6.40
2012,03,13,09,17,9.60
2012,03,13,09,18,8.10
2012,03,13,09,19,8.10
2012,03,13,09,20,6.40
2012,03,13,09,21,11.30
2012,03,13,09,22,8.10
2012,03,13,09,23,14.50
2012,03,13,09,24,11.30
2012,03,13,09,25,16.10
2012,03,13,09,26,11.30
2012,03,13,09,27,17.70
2012,03,13,09,28,11.30
2012,03,13,09,29,11.30
2012,03,13,09,30,6.40
2012,03,13,09,31,8.10
2012,03,13,09,32,8.10
2012,03,13,09,33,17.70
2012,03,13,09,34,11.30
2012,03,13,09,35,16.10
2012,03,13,09,36,17.70
2012,03,13,09,37,14.50
2012,03,13,09,38,8.10
2012,03,13,09,39,14.50
2012,03,13,09,40,9.60
2012,03,13,09,41,8.10
2012,03,13,09,42,14.50
2012,03,13,09,43,11.30
2012,03,13,09,44,11.30
2012,03,13,09,45,16.10
2012,03,13,09,46,16.10
2012,03,13,09,47,16.10
2012,03,13,09,48,16.10
2012,03,13,09,49,17.70
2012,03,13,09,50,19.30
2012,03,13,09,51,20.90
2012,03,13,09,52,17.70
2012,03,13,09,53,17.70
2012,03,13,09,54,16.10
2012,03,13,09,55,14.50
2012,03,13,09,56,17.70
2012,03,13,09,57,16.10
2012,03,13,09,58,17.70
2012,03,13,09,59,17.70
2012,03,13,10,00,20.90
2012,03,13,10,01,17.70
2012,03,13,10,02,12.90
2012,03,13,10,03,14.50
2012,03,13,10,04,20.90
2012,03,13,10,05,19.30
2012,03,13,10,06,14.50
2012,03,13,10,07,19.30
2012,03,13,10,08,20.90
2012,03,13,10,09,19.30
2012,03,13,10,10,20.90
2012,03,13,10,11,16.10
2012,03,13,10,12,20.90
2012,03,13,10,13,14.50
2012,03,13,10,14,20.90
2012,03,13,10,15,14.50
2012,03,13,10,16,19.30
2012,03,13,10,17,19.30
2012,03,13,10,18,17.70
2012,03,13,10,19,22.50
2012,03,13,10,20,11.30
2012,03,13,10,21,14.50
2012,03,13,10,22,17.70
2012,03,13,10,23,17.70
2012,03,13,10,24,16.10
2012,03,13,10,25,29.00
2012,03,13,10,26,27.40
2012,03,13,10,27,20.90
2012,03,13,10,28,16.10
2012,03,13,10,29,22.50
2012,03,13,10,30,14.50
2012,03,13,10,31,24.20
2012,03,13,10,32,24.20
2012,03,13,10,33,19.30
2012,03,13,10,34,25.70
2012,03,13,10,35,22.50
2012,03,13,10,36,14.50
2012,03,13,10,37,17.70
2012,03,13,10,38,17.70
2012,03,13,10,39,12.90
2012,03,13,10,40,9.60
2012,03,13,10,41,9.60
2012,03,13,10,42,14.50
2012,03,13,10,43,11.30
2012,03,13,10,44,9.60
2012,03,13,10,45,9.60
2012,03,13,10,46,8.10
2012,03,13,10,47,6.40
2012,03,13,10,48,11.30
2012,03,13,10,49,9.60
2012,03,13,10,50,6.40
2012,03,13,10,51,11.30
2012,03,13,10,52,11.30
2012,03,13,10,53,14.50
2012,03,13,10,54,17.70
2012,03,13,10,55,17.70
2012,03,13,10,56,19.30
2012,03,13,10,57,12.90
2012,03,13,10,58,9.60
2012,03,13,10,59,22.50
2012,03,13,11,00,9.60
2012,03,13,11,01,11.30
2012,03,13,11,02,8.10
2012,03,13,11,03,6.40
2012,03,13,11,04,6.40
2012,03,13,11,05,14.50
2012,03,13,11,06,9.60
2012,03,13,11,07,11.30
2012,03,13,11,08,8.10
2012,03,13,11,09,8.10
2012,03,13,11,10,8.10
2012,03,13,11,11,9.60
2012,03,13,11,12,11.30
2012,03,13,11,13,12.90
2012,03,13,11,14,9.60
2012,03,13,11,15,9.60
2012,03,13,11,16,11.30
2012,03,13,11,17,9.60
2012,03,13,11,18,8.10
2012,03,13,11,19,9.60
2012,03,13,11,20,4.80
2012,03,13,11,21,6.40
2012,03,13,11,22,8.10
2012,03,13,11,23,6.40
2012,03,13,11,24,6.40
2012,03,13,11,25,4.80
2012,03,13,11,26,8.10
2012,03,13,11,27,6.40
2012,03,13,11,28,8.10
2012,03,13,11,29,8.10
2012,03,13,11,30,9.60
2012,03,13,11,31,9.60
2012,03,13,11,32,4.80
2012,03,13,11,33,3.20
2012,03,13,11,34,1.60
2012,03,13,11,35,3.20
2012,03,13,11,38,4.80
2012,03,13,11,39,4.80
2012,03,13,11,40,4.80
2012,03,13,11,42,1.60
2012,03,13,11,44,3.20
2012,03,13,11,45,4.80
2012,03,13,11,46,3.20
2012,03,13,11,47,4.80
2012,03,13,11,48,1.60
2012,03,13,11,49,1.60
2012,03,13,11,50,1.60
2012,03,13,11,51,3.20
2012,03,13,11,52,4.80
2012,03,13,11,56,3.20
2012,03,13,11,57,6.40
2012,03,13,11,58,6.40
2012,03,13,11,59,4.80
2012,03,13,12,00,4.80
2012,03,13,12,01,4.80
2012,03,13,12,02,4.80
2012,03,13,12,03,3.20
2012,03,13,12,04,3.20
2012,03,13,12,05,8.10
2012,03,13,12,06,9.60
2012,03,13,12,07,6.40
2012,03,13,12,08,1.60
2012,03,13,12,09,6.40
2012,03,13,12,10,8.10
2012,03,13,12,11,9.60
2012,03,13,12,12,9.60
2012,03,13,12,13,6.40
2012,03,13,12,14,8.10
2012,03,13,12,15,14.50
2012,03,13,12,16,8.10
2012,03,13,12,17,4.80
2012,03,13,12,18,3.20
2012,03,13,12,19,1.60
2012,03,13,12,20,4.80
2012,03,13,12,21,3.20
2012,03,13,12,22,4.80
2012,03,13,12,23,1.60
2012,03,13,12,24,3.20
2012,03,13,12,25,3.20
2012,03,13,12,26,8.10
2012,03,13,12,27,6.40
2012,03,13,12,28,12.90
2012,03,13,12,29,11.30
2012,03,13,12,30,9.60
2012,03,13,12,31,8.10
2012,03,13,12,32,11.30
2012,03,13,12,33,11.30
2012,03,13,12,34,14.50
2012,03,13,12,35,8.10
2012,03,13,12,36,4.80
2012,03,13,12,37,6.40
2012,03,13,12,38,14.50
2012,03,13,12,39,14.50
2012,03,13,12,40,6.40
2012,03,13,12,41,6.40
2012,03,13,12,42,6.40
2012,03,13,12,43,1.60
2012,03,13,12,44,9.60
2012,03,13,12,45,8.10
2012,03,13,12,46,8.10
2012,03,13,12,47,8.10
2012,03,13,12,48,11.30
2012,03,13,12,49,14.50
2012,03,13,12,50,17.70
2012,03,13,12,51,9.60
2012,03,13,12,52,19.30
2012,03,13,12,53,16.10
2012,03,13,12,54,16.10
2012,03,13,12,55,17.70
2012,03,13,12,56,14.50
2012,03,13,12,57,16.10
2012,03,13,12,58,17.70
2012,03,13,12,59,20.90
2012,03,13,13,00,17.70
2012,03,13,13,01,17.70
2012,03,13,13,02,11.30
2012,03,13,13,03,14.50
2012,03,13,13,04,9.60
2012,03,13,13,05,4.80
2012,03,13,13,06,6.40
2012,03,13,13,07,1.60
2012,03,13,13,08,12.90
2012,03,13,13,09,14.50
2012,03,13,13,10,11.30
2012,03,13,13,11,6.40
2012,03,13,13,12,6.40
2012,03,13,13,13,3.20
2012,03,13,13,14,9.60
2012,03,13,13,15,11.30
2012,03,13,13,16,12.90
2012,03,13,13,17,14.50
2012,03,13,13,18,17.70
2012,03,13,13,19,9.60
2012,03,13,13,20,4.80
2012,03,13,13,21,14.50
2012,03,13,13,22,9.60
2012,03,13,13,23,14.50
2012,03,13,13,24,11.30
2012,03,13,13,25,8.10
2012,03,13,13,26,8.10
2012,03,13,13,27,3.20
2012,03,13,13,28,11.30
2012,03,13,13,29,14.50
2012,03,13,13,30,11.30
2012,03,13,13,31,8.10
2012,03,13,13,32,14.50
2012,03,13,13,33,11.30
2012,03,13,13,34,11.30
2012,03,13,13,35,16.10
2012,03,13,13,36,17.70
2012,03,13,13,37,17.70
2012,03,13,13,38,12.90
2012,03,13,13,39,4.80
2012,03,13,13,40,9.60
2012,03,13,13,41,16.10
2012,03,13,13,42,11.30
2012,03,13,13,43,8.10
2012,03,13,13,44,9.60
2012,03,13,13,45,16.10
2012,03,13,13,46,14.50
2012,03,13,13,47,16.10
2012,03,13,13,48,9.60
2012,03,13,13,49,9.60
2012,03,13,13,50,9.60
2012,03,13,13,51,17.70
2012,03,13,13,52,19.30
2012,03,13,13,53,14.50
2012,03,13,13,54,8.10
2012,03,13,13,55,6.40
2012,03,13,13,56,8.10
2012,03,13,13,57,4.80
2012,03,13,13,58,6.40
2012,03,13,13,59,8.10
2012,03,13,14,00,19.30
2012,03,13,14,01,24.20
2012,03,13,14,02,20.90
2012,03,13,14,03,27.40
2012,03,13,14,04,14.50
2012,03,13,14,05,19.30
2012,03,13,14,06,24.20
2012,03,13,14,07,24.20
2012,03,13,14,08,11.30
2012,03,13,14,09,11.30
2012,03,13,14,10,11.30
2012,03,13,14,11,16.10
2012,03,13,14,12,14.50
2012,03,13,14,13,11.30
2012,03,13,14,14,4.80
2012,03,13,14,15,16.10
2012,03,13,14,16,16.10
2012,03,13,14,17,16.10
2012,03,13,14,18,19.30
2012,03,13,14,19,14.50
2012,03,13,14,20,9.60
2012,03,13,14,21,11.30
2012,03,13,14,22,16.10
2012,03,13,14,23,16.10
2012,03,13,14,24,11.30
2012,03,13,14,25,16.10
2012,03,13,14,26,17.70
2012,03,13,14,27,27.40
2012,03,13,14,28,32.20
2012,03,13,14,29,25.70
2012,03,13,14,30,19.30
2012,03,13,14,31,27.40
2012,03,13,14,32,20.90
2012,03,13,14,33,25.70
2012,03,13,14,34,19.30
2012,03,13,14,35,24.20
2012,03,13,14,36,17.70
2012,03,13,14,37,20.90
2012,03,13,14,38,20.90
2012,03,13,14,39,17.70
2012,03,13,14,40,19.30
2012,03,13,14,41,20.90
2012,03,13,14,42,17.70
2012,03,13,14,43,22.50
2012,03,13,14,44,20.90
2012,03,13,14,45,20.90
2012,03,13,14,46,20.90
2012,03,13,14,47,20.90
2012,03,13,14,48,25.70
2012,03,13,14,49,19.30
2012,03,13,14,50,17.70
2012,03,13,14,51,20.90
2012,03,13,14,52,20.90
2012,03,13,14,53,16.10
2012,03,13,14,54,16.10
2012,03,13,14,55,17.70
2012,03,13,14,56,14.50
2012,03,13,14,57,20.90
2012,03,13,14,58,17.70
2012,03,13,14,59,14.50
2012,03,13,15,00,14.50
2012,03,13,15,01,19.30
2012,03,13,15,02,16.10
2012,03,13,15,03,17.70
2012,03,13,15,04,16.10
2012,03,13,15,05,14.50
2012,03,13,15,06,14.50
2012,03,13,15,07,11.30
2012,03,13,15,08,9.60
2012,03,13,15,09,8.10
2012,03,13,15,10,9.60
2012,03,13,15,11,8.10
2012,03,13,15,12,6.40
2012,03,13,15,13,6.40
2012,03,13,15,14,4.80
2012,03,13,15,15,6.40
2012,03,13,15,16,3.20
2012,03,13,15,19,1.60
2012,03,13,15,20,4.80
2012,03,13,15,21,4.80
2012,03,13,15,22,8.10
2012,03,13,15,23,3.20
2012,03,13,15,24,4.80
2012,03,13,15,25,1.60
2012,03,13,15,27,1.60
2012,03,13,15,31,1.60
2012,03,13,15,32,3.20
2012,03,13,15,36,6.40
2012,03,13,15,37,14.50
2012,03,13,15,38,11.30
2012,03,13,15,39,6.40
2012,03,13,15,40,6.40
2012,03,13,15,41,4.80
2012,03,13,15,42,4.80
2012,03,13,15,43,1.60
2012,03,13,15,44,3.20
2012,03,13,15,45,6.40
2012,03,13,15,46,6.40
2012,03,13,15,47,6.40
2012,03,13,15,48,8.10
2012,03,13,15,49,8.10
2012,03,13,15,50,8.10
2012,03,13,15,51,6.40
2012,03,13,15,52,3.20
2012,03,13,15,53,9.60
2012,03,13,15,54,9.60
2012,03,13,15,55,8.10
2012,03,13,15,56,4.80
2012,03,13,15,57,8.10
2012,03,13,15,58,8.10
2012,03,13,15,59,8.10
2012,03,13,16,00,6.40
2012,03,13,16,01,6.40
2012,03,13,16,02,4.80
2012,03,13,16,03,8.10
2012,03,13,16,04,9.60
2012,03,13,16,05,9.60
2012,03,13,16,06,8.10
2012,03,13,16,07,8.10
2012,03,13,16,08,3.20
2012,03,13,16,09,6.40
2012,03,13,16,10,4.80
2012,03,13,16,11,8.10
2012,03,13,16,12,6.40
2012,03,13,16,13,3.20
2012,03,13,16,14,6.40
2012,03,13,16,15,8.10
2012,03,13,16,16,4.80
2012,03,13,16,17,4.80
2012,03,13,16,18,1.60
2012,03,13,16,19,1.60
2012,03,13,16,20,8.10
2012,03,13,16,21,6.40
2012,03,13,16,22,11.30
2012,03,13,16,23,4.80
2012,03,13,16,25,1.60
2012,03,13,16,26,4.80
2012,03,13,16,27,6.40
2012,03,13,16,28,8.10
2012,03,13,16,29,17.70
2012,03,13,16,30,17.70
2012,03,13,16,31,24.20
2012,03,13,16,32,20.90
2012,03,13,16,33,17.70
2012,03,13,16,34,14.50
2012,03,13,16,35,17.70
2012,03,13,16,36,11.30
2012,03,13,16,37,9.60
2012,03,13,16,38,4.80
2012,03,13,16,39,6.40
2012,03,13,16,40,6.40
2012,03,13,16,41,14.50
2012,03,13,16,42,16.10
2012,03,13,16,43,24.20
2012,03,13,16,44,22.50
2012,03,13,16,45,19.30
2012,03,13,16,46,9.60
2012,03,13,16,47,6.40
2012,03,13,16,48,14.50
2012,03,13,16,49,8.10
2012,03,13,16,50,11.30
2012,03,13,16,51,12.90
2012,03,13,16,52,17.70
2012,03,13,16,53,14.50
2012,03,13,16,54,14.50
2012,03,13,16,55,9.60
2012,03,13,16,56,11.30
2012,03,13,16,57,9.60
2012,03,13,16,58,16.10
2012,03,13,16,59,20.90
2012,03,13,17,00,17.70
2012,03,13,17,01,24.20
2012,03,13,17,02,29.00
2012,03,13,17,03,24.20
2012,03,13,17,04,22.50
2012,03,13,17,05,14.50
2012,03,13,17,06,11.30
2012,03,13,17,07,9.60
2012,03,13,17,08,19.30
2012,03,13,17,09,16.10
2012,03,13,17,10,14.50
2012,03,13,17,11,11.30
2012,03,13,17,12,11.30
2012,03,13,17,13,11.30
2012,03,13,17,14,12.90
2012,03,13,17,15,11.30
2012,03,13,17,16,16.10
2012,03,13,17,17,19.30
2012,03,13,17,18,19.30
2012,03,13,17,19,14.50
2012,03,13,17,20,17.70
2012,03,13,17,21,19.30
2012,03,13,17,22,9.60
2012,03,13,17,23,17.70
2012,03,13,17,24,17.70
2012,03,13,17,25,11.30
2012,03,13,17,26,17.70
2012,03,13,17,27,16.10
2012,03,13,17,28,16.10
2012,03,13,17,29,20.90
2012,03,13,17,30,24.20
2012,03,13,17,31,20.90
2012,03,13,17,32,14.50
2012,03,13,17,33,19.30
2012,03,13,17,34,9.60
2012,03,13,17,35,16.10
2012,03,13,17,36,16.10
2012,03,13,17,37,16.10
2012,03,13,17,38,19.30
2012,03,13,17,39,14.50
2012,03,13,17,40,11.30
2012,03,13,17,41,8.10
2012,03,13,17,42,9.60
2012,03,13,17,43,11.30
2012,03,13,17,44,11.30
2012,03,13,17,45,17.70
2012,03,13,17,46,12.90
2012,03,13,17,47,9.60
2012,03,13,17,48,14.50
2012,03,13,17,49,19.30
2012,03,13,17,50,11.30
2012,03,13,17,51,16.10
2012,03,13,17,52,9.60
2012,03,13,17,53,9.60
2012,03,13,17,54,9.60
2012,03,13,17,55,12.90
2012,03,13,17,56,16.10
2012,03,13,17,57,12.90
2012,03,13,17,58,16.10
2012,03,13,17,59,11.30
2012,03,13,18,00,14.50
2012,03,13,18,01,22.50
2012,03,13,18,02,16.10
2012,03,13,18,03,19.30
2012,03,13,18,04,16.10
2012,03,13,18,05,11.30
2012,03,13,18,06,19.30
2012,03,13,18,07,17.70
2012,03,13,18,08,17.70
2012,03,13,18,09,22.50
2012,03,13,18,10,16.10
2012,03,13,18,11,16.10
2012,03,13,18,12,19.30
2012,03,13,18,13,19.30
2012,03,13,18,14,22.50
2012,03,13,18,15,22.50
2012,03,13,18,16,24.20
2012,03,13,18,17,24.20
2012,03,13,18,18,19.30
2012,03,13,18,19,24.20
2012,03,13,18,20,19.30
2012,03,13,18,21,20.90
2012,03,13,18,22,16.10
2012,03,13,18,23,19.30
2012,03,13,18,24,17.70
2012,03,13,18,25,16.10
2012,03,13,18,26,19.30
2012,03,13,18,27,12.90
2012,03,13,18,28,17.70
2012,03,13,18,29,14.50
2012,03,13,18,30,11.30
2012,03,13,18,31,16.10
2012,03,13,18,32,16.10
2012,03,13,18,33,16.10
2012,03,13,18,34,19.30
2012,03,13,18,35,9.60
2012,03,13,18,36,16.10
2012,03,13,18,37,9.60
2012,03,13,18,38,9.60
2012,03,13,18,39,9.60
2012,03,13,18,40,9.60
2012,03,13,18,41,9.60
2012,03,13,18,42,11.30
2012,03,13,18,43,14.50
2012,03,13,18,44,11.30
2012,03,13,18,45,11.30
2012,03,13,18,46,11.30
2012,03,13,18,47,14.50
2012,03,13,18,48,9.60
2012,03,13,18,49,11.30
2012,03,13,18,50,25.70
2012,03,13,18,51,22.50
2012,03,13,18,52,20.90
2012,03,13,18,53,12.90
2012,03,13,18,54,16.10
2012,03,13,18,55,14.50
2012,03,13,18,56,9.60
2012,03,13,18,57,6.40
2012,03,13,18,58,8.10
2012,03,13,18,59,8.10
2012,03,13,19,00,9.60
2012,03,13,19,01,8.10
2012,03,13,19,02,17.70
2012,03,13,19,03,19.30
2012,03,13,19,04,11.30
2012,03,13,19,05,14.50
2012,03,13,19,06,19.30
2012,03,13,19,07,17.70
2012,03,13,19,08,14.50
2012,03,13,19,09,16.10
2012,03,13,19,10,11.30